Wetterdaten: aktuell Mittwoch, 15.07.2020 02:30
Datum Zeit Temp. I. Temp. A. Teich Feuchte I. Feuchte A. Luftdruck Regen Wind Richtung Richtung Sonnenschein T Regen ET Solar Taupunkt Windchill Windben Empfang
15.07.2020 02:30 21,3 C 9,3 C 20,0 C 51 % 90 % 1014,1 hPa 0,0 l/m 0,0 km/h O 91 0 min 0 min 0,000 mm 0 W/m 7,7 C 9,3 C 0,0 km/h 97,44 %
15.07.2020 02:25 21,4 C 9,3 C 20,0 C 51 % 90 % 1014,2 hPa 0,0 l/m 0,3 km/h O 91 0 min 0 min 0,000 mm 0 W/m 7,7 C 9,3 C 3,2 km/h 96,61 %
15.07.2020 02:20 21,4 C 9,3 C 20,0 C 50 % 91 % 1014,1 hPa 0,0 l/m 0,8 km/h O 91 0 min 0 min 0,000 mm 0 W/m 7,9 C 9,3 C 3,2 km/h 94,44 %
15.07.2020 02:15 21,5 C 9,3 C 20,0 C 50 % 90 % 1014,2 hPa 0,0 l/m 0,0 km/h O 91 0 min 0 min 0,000 mm 0 W/m 7,7 C 9,3 C 0,0 km/h 95,83 %
15.07.2020 02:10 21,6 C 9,3 C 20,0 C 50 % 89 % 1014,2 hPa 0,0 l/m 0,0 km/h O 91 0 min 0 min 0,000 mm 0 W/m 7,6 C 9,3 C 0,0 km/h 99,15 %
15.07.2020 02:05 21,7 C 9,6 C 20,0 C 50 % 89 % 1014,3 hPa 0,0 l/m 0,0 km/h O 91 0 min 0 min 0,000 mm 0 W/m 7,9 C 9,6 C 0,0 km/h 91,67 %
15.07.2020 02:00 21,7 C 9,6 C 20,0 C 50 % 89 % 1014,3 hPa 0,0 l/m 0,0 km/h O 91 0 min 0 min 0,000 mm 0 W/m 7,9 C 9,6 C 0,0 km/h 95,50 %
15.07.2020 01:55 21,8 C 9,7 C 20,0 C 50 % 89 % 1014,3 hPa 0,0 l/m 0,0 km/h O 91 0 min 0 min 0,000 mm 0 W/m 8,0 C 9,7 C 0,0 km/h 95,83 %
15.07.2020 01:50 21,9 C 9,8 C 20,0 C 50 % 88 % 1014,4 hPa 0,0 l/m 0,0 km/h O 91 0 min 0 min 0,000 mm 0 W/m 7,9 C 9,8 C 0,0 km/h 93,16 %
15.07.2020 01:45 21,9 C 10,1 C 20,0 C 50 % 89 % 1014,4 hPa 0,0 l/m 0,0 km/h O 91 0 min 0 min 0,000 mm 0 W/m 8,4 C 10,1 C 1,6 km/h 96,49 %
15.07.2020 01:40 22,0 C 10,1 C 20,0 C 50 % 87 % 1014,5 hPa 0,0 l/m 0,0 km/h O 91 0 min 0 min 0,000 mm 0 W/m 8,0 C 10,1 C 0,0 km/h 95,00 %
15.07.2020 01:35 22,1 C 10,3 C 20,0 C 50 % 87 % 1014,4 hPa 0,0 l/m 0,0 km/h O 91 0 min 0 min 0,000 mm 0 W/m 8,2 C 10,3 C 0,0 km/h 96,75 %
15.07.2020 01:30 22,1 C 10,5 C 20,0 C 50 % 88 % 1014,4 hPa 0,0 l/m 0,7 km/h O 91 0 min 0 min 0,000 mm 0 W/m 8,6 C 10,5 C 3,2 km/h 94,87 %
15.07.2020 01:25 22,2 C 10,5 C 20,0 C 50 % 86 % 1014,5 hPa 0,0 l/m 0,0 km/h O 91 0 min 0 min 0,000 mm 0 W/m 8,3 C 10,5 C 0,0 km/h 99,13 %
15.07.2020 01:20 22,3 C 10,8 C 20,0 C 50 % 86 % 1014,4 hPa 0,0 l/m 0,0 km/h O 91 0 min 0 min 0,000 mm 0 W/m 8,6 C 10,8 C 0,0 km/h 100,00 %
15.07.2020 01:15 22,3 C 11,0 C 19,4 C 50 % 86 % 1014,4 hPa 0,0 l/m 0,0 km/h O 91 0 min 0 min 0,000 mm 0 W/m 8,7 C 11,0 C 1,6 km/h 100,00 %
15.07.2020 01:10 22,3 C 11,1 C 20,0 C 50 % 86 % 1014,5 hPa 0,0 l/m 0,1 km/h O 91 0 min 0 min 0,000 mm 0 W/m 8,8 C 11,1 C 1,6 km/h 98,29 %
15.07.2020 01:05 22,4 C 11,2 C 20,0 C 50 % 84 % 1014,5 hPa 0,0 l/m 0,0 km/h O 91 0 min 0 min 0,000 mm 0 W/m 8,6 C 11,2 C 1,6 km/h 99,07 %
15.07.2020 01:00 22,6 C 11,4 C 20,0 C 49 % 83 % 1014,5 hPa 0,0 l/m 0,2 km/h O 91 0 min 0 min 0,000 mm 0 W/m 8,6 C 11,4 C 1,6 km/h 100,00 %
15.07.2020 00:55 22,6 C 11,6 C 20,0 C 49 % 84 % 1014,5 hPa 0,0 l/m 1,2 km/h O 91 0 min 0 min 0,000 mm 0 W/m 9,0 C 11,6 C 4,8 km/h 100,00 %
15.07.2020 00:50 22,7 C 11,4 C 20,0 C 49 % 84 % 1014,5 hPa 0,0 l/m 2,7 km/h O-NO 74 0 min 0 min 0,000 mm 0 W/m 8,8 C 11,4 C 4,8 km/h 92,31 %
15.07.2020 00:45 22,8 C 11,3 C 19,4 C 49 % 85 % 1014,4 hPa 0,0 l/m 2,5 km/h O-NO 71 0 min 0 min 0,000 mm 0 W/m 8,9 C 11,3 C 4,8 km/h 93,16 %
15.07.2020 00:40 22,8 C 11,3 C 20,0 C 49 % 85 % 1014,4 hPa 0,0 l/m 3,3 km/h O-NO 78 0 min 0 min 0,000 mm 0 W/m 8,9 C 11,3 C 6,4 km/h 93,16 %
15.07.2020 00:35 22,9 C 11,2 C 20,0 C 49 % 85 % 1014,5 hPa 0,0 l/m 3,6 km/h O-NO 76 0 min 0 min 0,000 mm 0 W/m 8,8 C 11,2 C 6,4 km/h 92,31 %
15.07.2020 00:30 23,0 C 11,2 C 20,0 C 49 % 86 % 1014,5 hPa 0,0 l/m 4,5 km/h O-NO 74 0 min 0 min 0,000 mm 0 W/m 8,9 C 11,2 C 6,4 km/h 95,12 %
15.07.2020 00:25 23,1 C 11,2 C 20,0 C 49 % 86 % 1014,4 hPa 0,0 l/m 4,5 km/h O-NO 71 0 min 0 min 0,000 mm 0 W/m 8,9 C 11,2 C 6,4 km/h 96,67 %
15.07.2020 00:20 23,2 C 11,1 C 19,4 C 49 % 86 % 1014,5 hPa 0,0 l/m 4,0 km/h O-NO 67 0 min 0 min 0,000 mm 0 W/m 8,8 C 11,1 C 6,4 km/h 96,58 %
15.07.2020 00:15 23,3 C 11,1 C 19,4 C 49 % 86 % 1014,5 hPa 0,0 l/m 5,1 km/h O-NO 69 0 min 0 min 0,000 mm 0 W/m 8,8 C 11,1 C 6,4 km/h 93,22 %
15.07.2020 00:10 23,4 C 11,2 C 20,0 C 49 % 86 % 1014,5 hPa 0,0 l/m 3,8 km/h O-NO 69 0 min 0 min 0,000 mm 0 W/m 8,9 C 11,2 C 6,4 km/h 89,47 %
15.07.2020 00:05 23,4 C 11,2 C 19,4 C 49 % 87 % 1014,5 hPa 0,0 l/m 3,5 km/h O-NO 76 0 min 0 min 0,000 mm 0 W/m 9,1 C 11,2 C 6,4 km/h 94,50 %
15.07.2020 00:00 23,6 C 11,2 C 19,4 C 49 % 88 % 1014,5 hPa 0,0 l/m 4,0 km/h O 79 0 min 0 min 0,000 mm 0 W/m 9,3 C 11,2 C 6,4 km/h 99,17 %
_ Min-Zeit 02:30 02:20 00:00 00:00 01:00 02:20 - 01:05 - - - - - - 02:10 02:10 01:20 00:10
Minimum _ 21,3 C 9,2 C 19,4 C 49 % 83 % 1014,1 hPa - 0,0 km/h - - - - - - 7,6 C 9,3 C 0,0 km/h 89,47 %
_ Max-Zeit 00:00 00:55 00:10 02:25 02:20 00:00 00:00 00:15 - - 00:00 00:00 00:00 00:00 00:00 00:55 00:00 00:55
Maximum _ 23,6 C 11,6 C 20,0 C 51 % 91 % 1014,5 hPa 0,0 l/m 5,1 km/h
O-NO
- - 0 min 0 min 0,000 mm 0 W/m 9,3 C 11,6 C 6,4 km/h
O
100,00 %
Durchschnitt _ 22,4 C 10,6 C 19,9 C 50 % 87 % 1014,4 hPa #0,0 l/m 1,4 km/h O-NO - #0 min. #0 min. #0,000 mm 0 W/m 8,5 C 10,6 C 2,9 km/h 95,96 %